Location: Владивосток
(43.1151°N, 131.8856°E)
Time: 18:46:54
(UTC+10:00)

SPROUT - Pass Details

Date: 06 July 2022
Orbit: 588 x 598 km, 97.9° (Epoch: 17 August)

Event Time Altitude Azimuth Distance (km) Brightness Sun altitude
Exits shadow 03:03:20 19° 274° (W) 1,412 ? -19.8°
Drops below altitude 10° 03:06:00 10° 314° (NW) 1,924 ? -19.5°
Sets 03:08:41 0° 332° (NNW) 2,832 ? -19.3°
